Regional Weather Roundup
Issued by NWS

Home | Current Version | Previous Version | Text Only | Print | Product List | Glossary Off
Versions: 1 2 3 4 5 6 7 8 9 10 11 12 13 14 15 16 17 18 19 20 21 22 23 24 25 26 27

000
ASUS45 KBOU 250407
RWRCO

WEATHER ROUNDUP FOR COLORADO
NATIONAL WEATHER SERVICE DENVER/BOULDER CO
1000 PM MDT WED MAY 24 2017

NOTE: "FAIR" INDICATES FEW OR NO CLOUDS BELOW 12000 FEET WITH NO
SIGNIFICANT WEATHER AND/OR OBSTRUCTIONS TO VISIBILITY.

COZ001>005-013-030-031-250500-
...NORTHWEST COLORADO...

CITY           SKY/WX    TMP DP  RH WIND       PRES   REMARKS
CRAIG          FAIR      53  38  56 S3        29.65S
HAYDEN         FAIR      63  34  34 E5        29.68S
MEEKER         FAIR      67  32  27 S14G22    29.68R
RABBIT EARS PA MOCLDY    46  28  49 SW9       29.95F
STEAMBOAT SPGS FAIR      58  35  42 E5        29.70F
WALDEN           N/A     54  32  43 NW5       29.81S
$$

COZ006>008-011-250500-
...WEST CENTRAL VALLEYS...

CITY           SKY/WX    TMP DP  RH WIND       PRES   REMARKS
GRAND JUNCTION FAIR      71  32  23 E6        29.59S
MONTROSE       FAIR      68  29  23 S5        29.71S
EAGLE          FAIR      60  33  36 VRB5      29.76R
RIFLE          FAIR      73  32  22 W7        29.65F
DELTA          FAIR      76  26  15 SW3       29.64S
NUCLA          FAIR      73  19  13 SW15      29.74S
$$

COZ017>023-064>068-250500-
...SOUTHWEST COLORADO...

CITY           SKY/WX    TMP DP  RH WIND       PRES   REMARKS
DURANGO        FAIR      52  27  38 NE5       29.82S
CORTEZ         FAIR      56  36  47 E3        29.76S
PAGOSA SPRINGS FAIR      53  24  31 CALM      29.91R
TELLURIDE      FAIR      60  18  19 SE5       29.99S
WOLF CREEK PAS FAIR      43  21  42 SW14G22   30.21F
$$

COZ009-010-012-014-032>034-037-058>063-250500-
...CENTRAL COLORADO...

CITY           SKY/WX    TMP DP  RH WIND       PRES   REMARKS
ASPEN          FAIR      54  33  45 SW14G20   29.84R
BUENA VISTA    FAIR      58  28  32 W9        29.86S
COPPER MTN     FAIR      46  21  36 W14G23    30.10S
BERTHOUD PASS  FAIR      37  28  70 W35G46    30.08F
COTTONWOOD PAS FAIR      55  23  28 SW5       29.99R
GUNNISON       MOCLDY    59  33  37 SE5       29.86R
KREMMLING      FAIR      55  34  44 CALM      29.78R
LEADVILLE      CLOUDY    50  23  34 CALM      29.96R
MONARCH PASS   CLOUDY    45  25  45 W37G49    30.22R
SALIDA         FAIR      63  28  27 W10       29.90S
SUNLIGHT       MOCLDY    45  28  53 SW17G24   30.04R
WILKERSON PASS FAIR      45  23  42 SW13G20   30.08S
$$

COZ069>075-250500-
...SAN LUIS VALLEY/SANGRE DE CRISTO MOUNTAINS...

CITY           SKY/WX    TMP DP  RH WIND       PRES   REMARKS
ALAMOSA        FAIR      61  24  24 SW13      29.87R
DEL NORTE      FAIR      56  23  27 W6        29.90S
LA VETA PASS   FAIR      48  21  34 MISG      30.13R
SAGUACHE       FAIR      55  27  33 N6        29.88R
$$

COZ035-036-038>040-250500-
...NORTHERN COLORADO FRONT RANGE...

CITY           SKY/WX    TMP DP  RH WIND       PRES   REMARKS
DENVER INTL AP FAIR      66  37  34 SW8       29.61S
DMNS CITY PARK   N/A     66  31  27 E8        29.60S
AURORA         PTCLDY    65  33  30 S3        29.64R
FRONT RANGE AP NOT AVBL
ERIE MUNI ARPT FAIR      59  41  51 CALM      29.58S
BOULDER MUN AP FAIR      64  34  32 SW6       29.59S
CENTENNIAL     FAIR      63  29  27 SW9       29.65S
BROOMFIELD     PTCLDY    63  36  36 W6        29.63S
FORT COLLINS   FAIR      67  39  35 W8        29.58R
LONGMONT       FAIR      61  42  50 W5        29.60R
$$

COZ041-046-047-076>085-087-088-250500-
...PIKES PEAK/PALMER DIVIDE AND SOUTHERN FOOTHILLS...

CITY           SKY/WX    TMP DP  RH WIND       PRES   REMARKS
COLO. SPRINGS  FAIR      67  31  26 E8        29.71R
A. F. ACADEMY  FAIR      64  28  25 NW5       29.72R
SCHRIEVER AFB  FAIR      63  39  41 N12       29.72R
CHEYENNE MTN   FAIR      65  26  23 W5        29.71R
ELLICOTT       FAIR     N/A N/A N/A E13       29.69S
FALCON         FAIR      59  36  41 NE5       29.77S
FORT CARSON    FAIR      70  32  24 NW3       29.68R
LIMON          FAIR      52  42  69 SE6       29.67R
MONUMENT HILL  FAIR      54  34  47 SW9       29.77S
CANON CITY     NOT AVBL
WALSENBURG     FAIR      61  39  44 W9        29.72R
TRINIDAD       FAIR      64  35  34 W14       29.71R
$$

COZ042>045-048>051-090-091-250500-
...NORTHEAST COLORADO...

CITY           SKY/WX    TMP DP  RH WIND       PRES   REMARKS
GREELEY ARPT   FAIR      63  45  51 S5        29.56
AKRON          FAIR      68  41  37 S17G28    29.58R
BURLINGTON     FAIR      60  46  59 S16       29.61R
WRAY           FAIR      66  43  42 S20G26    29.53R
YUMA           FAIR      61  37  41 S15       29.55R
STERLING       FAIR      61  48  63 SW15      29.50R
HOLYOKE        NOT AVBL
FORT MORGAN    FAIR      65  43  44 S13       29.56R
$$

COZ086-089-092>099-250500-
...SOUTHEAST COLORADO...

CITY           SKY/WX    TMP DP  RH WIND       PRES   REMARKS
PUEBLO         FAIR      64  39  39 W6        29.59R
LA JUNTA       FAIR      73  43  33 S10       29.56S
LAMAR          FAIR      60  48  64 E8        29.57R
SPRINGFIELD      N/A     57  46  66 S7        29.65R
$$




USA.gov is the U.S. government's official web portal to all federal, state and local government web resources and services.